Location: Napier
(39.4830°S, 176.9170°E)
Time: 02:44:23
(UTC+12:00)

Nimbus 7 Rocket - Pass Details

Date: 24 January 2019
Orbit: 923 x 964 km, 99.5° (Epoch: 17 April)

Event Time Altitude Azimuth Distance (km) Brightness Sun altitude
Exits shadow 22:39:00 33° 24° (NNE) 1,516 5.0 -19.7°
Maximum altitude 22:41:49 81° 106° (ESE) 962 4.4 -20.1°
Drops below altitude 10° 22:47:51 10° 192° (SSW) 2,692 7.7 -20.9°
Sets 22:50:19 0° 193° (SSW) 3,650 8.6 -21.2°
